Sisseton, SD

7:15 AM CDT on May 25, 2017 (GMT -0500)
Sisseton

Weather History for K8D3 - March, 2013

Change the Weather History Date:

Tuesday, March 12, 2013

  Actual Average Record
Temperature  
Mean Temperature 20 °F 28 °F  
Max Temperature 29 °F 37 °F 71 °F (2016)
Min Temperature 11 °F 19 °F -14 °F (2009)
Degree Days  
Heating Degree Days 45 37  
Month to date heating degree days 546 471  
Since 1 July heating degree days 6931 6730  
Cooling Degree Days 0 0  
Month to date cooling degree days 0 0  
Year to date cooling degree days 0 0  
Moisture  
Dew Point 17 °F    
Average Humidity 83    
Maximum Humidity 92    
Minimum Humidity 74    
Precipitation  
Precipitation 0.01 in 0.03 in 1.30 in (1977)
Month to date precipitation 0.73 0.41  
Year to date precipitation 3.11 1.27  
Snow  
Snow T in - - ()
Month to date snowfall 3.3  
Since 1 July snowfall 40.0  
Snow Depth 18.00 in    
Sea Level Pressure  
Sea Level Pressure 30.18 in    
Wind  
Wind Speed 18 mph (NNW)    
Max Wind Speed 29 mph    
Max Gust Speed 33 mph    
T = Trace of Precipitation, MM = Missing Value Source: NWS Daily Summary

Daily Weather History Graph

Daily Weather History Graph

Search for Another Location

Airport or City:

Trip Planner

Search our weather history database for the weather conditions in past years. The results will help you decide how hot, cold, wet, or windy it might be!

Date:

Astronomy

Mar. 12, 2013 Rise Set
Actual Time 7:45 AM CDT 7:30 PM CDT
Civil Twilight 7:16 AM CDT 7:59 PM CDT
Nautical Twilight 6:41 AM CDT 8:34 PM CDT
Astronomical Twilight 6:06 AM CDT 9:09 PM CDT
Moon 7:48 AM CDT (3/12) 8:53 PM CDT (3/12)
Length of Visible Light 12h 43m
Length of Day
11h 44m
New Moon, 1% of the Moon is Illuminated
Mar 12
New Moon
Mar 19
First Quarter
Mar 27
Full
Apr 2
Last Quarter
Apr 10
New

Hourly Weather History & Observations

Time (CDT) Temp. Windchill Dew Point Humidity Pressure Visibility Wind Dir Wind Speed Gust Speed Precip Events Conditions
12:56 AM 28.9 °F 16.1 °F 23.0 °F 78% 29.93 in - NNW 19.6 mph - N/A   Unknown
1:56 AM 28.0 °F 16.1 °F 24.1 °F 85% 29.94 in - North 16.1 mph - N/A   Unknown
2:56 AM 25.0 °F 12.2 °F 21.9 °F 88% 29.96 in - North 16.1 mph - N/A   Unknown
3:56 AM 23.0 °F 9.6 °F 19.9 °F 88% 29.97 in - North 16.1 mph - N/A   Unknown
4:56 AM 19.9 °F 5.2 °F 17.1 °F 89% 30.00 in - North 17.3 mph - N/A   Unknown
5:56 AM 19.0 °F 5.0 °F 16.0 °F 88% 30.03 in - North 15.0 mph - N/A   Unknown
6:56 AM 18.0 °F 4.8 °F 15.1 °F 88% 30.07 in - North 12.7 mph - N/A   Unknown
7:56 AM 17.1 °F 2.5 °F 15.1 °F 92% 30.10 in - North 15.0 mph - 0.01 in   Unknown
8:56 AM 17.1 °F 2.0 °F 14.0 °F 88% 30.12 in - NNW 16.1 mph - N/A   Unknown
9:56 AM 18.0 °F 1.3 °F 15.1 °F 88% 30.15 in - NNW 20.7 mph - N/A   Unknown
10:56 AM 19.0 °F 2.7 °F 15.1 °F 85% 30.18 in - NNW 20.7 mph - N/A   Unknown
11:56 AM 19.9 °F 2.8 °F 15.1 °F 81% 30.20 in - NNW 24.2 mph - N/A   Unknown
12:56 PM 21.9 °F 5.8 °F 16.0 °F 78% 30.21 in - NNW 23.0 mph - N/A   Unknown
1:56 PM 21.9 °F 5.5 °F 18.0 °F 85% 30.22 in - NNW 24.2 mph - N/A   Unknown
2:56 PM 24.1 °F 8.7 °F 19.0 °F 81% 30.23 in - North 23.0 mph - N/A   Unknown
3:56 PM 25.0 °F 9.5 °F 18.0 °F 75% 30.24 in - NNW 24.2 mph 31.1 mph N/A   Unknown
4:56 PM 24.1 °F 8.0 °F 18.0 °F 77% 30.26 in - North 25.3 mph - N/A   Unknown
5:56 PM 21.9 °F 5.5 °F 17.1 °F 82% 30.28 in - NNW 24.2 mph - N/A   Unknown
6:56 PM 21.0 °F 5.4 °F 17.1 °F 85% 30.32 in - NNW 20.7 mph - N/A   Unknown
7:56 PM 19.9 °F 3.9 °F 15.1 °F 81% 30.35 in - NNW 20.7 mph - N/A   Unknown
8:56 PM 18.0 °F 3.6 °F 14.0 °F 84% 30.37 in - North 15.0 mph - N/A   Unknown
9:56 PM 16.0 °F 2.3 °F 10.9 °F 81% 30.39 in - NNW 12.7 mph - N/A   Unknown
10:56 PM 16.0 °F 1.7 °F 12.0 °F 84% 30.39 in - NNW 13.8 mph - N/A   Unknown
11:56 PM 15.1 °F 0.5 °F 10.0 °F 80% 30.40 in - NNW 13.8 mph - N/A   Unknown